| time (UTC) | temp F | wind direction | speed MPH | gust MPH | rain 1hr in | rain 24hr in | rain mn in | humidity % | barometer mb |
| 20260507043050 | 51 | 0 | 0.0 | 0.0 | 0.00 | 0.25 | 0.02 | 90 | 1013.8 |
| 20260507041603 | 51 | 0 | 0.0 | 0.0 | 0.00 | 0.25 | 0.02 | 90 | 1013.7 |
| 20260507040058 | 51 | 0 | 0.0 | 0.0 | 0.00 | 0.25 | 0.02 | 90 | 1013.7 |
| 20260507034600 | 51 | 0 | 0.0 | 1.0 | 0.00 | 0.25 | 0.02 | 90 | 1013.7 |
| 20260507033101 | 51 | 0 | 0.0 | 0.0 | 0.00 | 0.25 | 0.02 | 89 | 1013.6 |
| 20260507031605 | 52 | 0 | 0.0 | 0.0 | 0.00 | 0.25 | 0.02 | 89 | 1013.6 |
| 20260507030055 | 52 | 25 | 0.0 | 2.0 | 0.00 | 0.25 | 0.02 | 89 | 1013.6 |
| 20260507024553 | 52 | 13 | 0.0 | 1.0 | 0.00 | 0.37 | 0.02 | 89 | 1013.7 |
| 20260507023102 | 53 | 0 | 0.0 | 1.0 | 0.00 | 0.37 | 0.02 | 89 | 1013.7 |
| 20260507021551 | 53 | 0 | 0.0 | 1.0 | 0.00 | 0.37 | 0.02 | 88 | 1013.8 |
| 20260507020056 | 53 | 0 | 0.0 | 2.0 | 0.00 | 0.37 | 0.02 | 87 | 1013.6 |
| 20260507014600 | 53 | 37 | 1.0 | 3.0 | 0.00 | 0.37 | 0.02 | 87 | 1013.5 |
| 20260507013053 | 54 | 53 | 0.0 | 1.0 | 0.00 | 0.37 | 0.02 | 88 | 1013.6 |
| 20260507011552 | 54 | 0 | 0.0 | 1.0 | 0.00 | 0.37 | 0.02 | 87 | 1013.6 |
| 20260507010054 | 54 | 53 | 0.0 | 1.0 | 0.00 | 0.37 | 0.02 | 86 | 1013.8 |
| 20260507004552 | 54 | 0 | 0.0 | 2.0 | 0.00 | 0.37 | 0.02 | 86 | 1013.7 |
| 20260507003055 | 54 | 0 | 0.0 | 4.0 | 0.00 | 0.37 | 0.02 | 87 | 1013.7 |
| 20260507001551 | 54 | 112 | 0.0 | 1.0 | 0.00 | 0.37 | 0.02 | 87 | 1013.9 |
| 20260507000051 | 54 | 0 | 0.0 | 4.0 | 0.00 | 0.37 | 0.02 | 87 | 1013.8 |
| 20260506234550 | 54 | 139 | 1.0 | 3.0 | 0.00 | 0.37 | 0.02 | 87 | 1014.0 |
| 20260506233108 | 54 | 155 | 1.0 | 3.0 | 0.00 | 0.37 | 0.02 | 87 | 1013.9 |
| 20260506231553 | 54 | 70 | 1.0 | 4.0 | 0.00 | 0.37 | 0.02 | 88 | 1013.8 |
| 20260506230053 | 54 | 56 | 2.0 | 5.0 | 0.02 | 0.37 | 0.02 | 88 | 1014.0 |
| 20260506224553 | 55 | 134 | 3.0 | 6.0 | 0.02 | 0.40 | 0.02 | 88 | 1014.2 |
| 20260506223053 | 55 | 152 | 3.0 | 7.0 | 0.02 | 0.40 | 0.02 | 88 | 1014.0 |
| 20260506221553 | 55 | 137 | 2.0 | 6.0 | 0.01 | 0.40 | 0.01 | 88 | 1013.8 |
| 20260506220056 | 56 | 124 | 2.0 | 5.0 | 0.00 | 0.38 | 0.00 | 88 | 1013.9 |
| 20260506214552 | 56 | 136 | 1.0 | 5.0 | 0.00 | 0.38 | 0.38 | 88 | 1013.9 |
| 20260506213113 | 56 | 136 | 1.0 | 4.0 | 0.00 | 0.38 | 0.38 | 88 | 1013.8 |
| 20260506211551 | 56 | 0 | 0.0 | 2.0 | 0.00 | 0.38 | 0.38 | 88 | 1013.6 |
| 20260506210054 | 57 | 140 | 0.0 | 3.0 | 0.00 | 0.38 | 0.38 | 88 | 1013.6 |
| 20260506204554 | 57 | 127 | 1.0 | 3.0 | 0.00 | 0.38 | 0.38 | 88 | 1013.5 |
| 20260506203053 | 57 | 98 | 1.0 | 2.0 | 0.00 | 0.38 | 0.38 | 88 | 1013.4 |
| 20260506201550 | 58 | 128 | 2.0 | 5.0 | 0.00 | 0.38 | 0.38 | 88 | 1013.3 |
| 20260506200053 | 58 | 120 | 2.0 | 4.0 | 0.00 | 0.38 | 0.38 | 88 | 1013.2 |
| 20260506194616 | 59 | 122 | 1.0 | 4.0 | 0.00 | 0.38 | 0.38 | 88 | 1012.7 |
| 20260506193102 | 59 | 122 | 1.0 | 4.0 | 0.00 | 0.38 | 0.38 | 89 | 1012.8 |
| 20260506191551 | 59 | 135 | 0.0 | 5.0 | 0.00 | 0.38 | 0.38 | 89 | 1012.4 |
| 20260506190057 | 60 | 110 | 1.0 | 8.0 | 0.00 | 0.38 | 0.38 | 89 | 1012.1 |
| 20260506184638 | 60 | 134 | 2.0 | 4.0 | 0.00 | 0.38 | 0.38 | 88 | 1012.0 |
| 20260506183057 | 61 | 0 | 0.0 | 1.0 | 0.00 | 0.38 | 0.38 | 88 | 1011.7 |
| 20260506181556 | 61 | 0 | 0.0 | 0.0 | 0.00 | 0.38 | 0.38 | 88 | 1011.7 |
| 20260506180106 | 62 | 0 | 0.0 | 0.0 | 0.00 | 0.38 | 0.38 | 89 | 1011.6 |
| 20260506174556 | 62 | 260 | 0.0 | 2.0 | 0.00 | 0.38 | 0.38 | 89 | 1011.4 |
| 20260506173058 | 62 | 0 | 0.0 | 1.0 | 0.00 | 0.38 | 0.38 | 89 | 1011.3 |
| 20260506171603 | 61 | 160 | 0.0 | 3.0 | 0.00 | 0.38 | 0.38 | 89 | 1011.4 |
| 20260506170105 | 61 | 0 | 0.0 | 2.0 | 0.01 | 0.38 | 0.38 | 89 | 1011.4 |
| 20260506164557 | 61 | 0 | 0.0 | 2.0 | 0.01 | 0.38 | 0.38 | 88 | 1011.2 |
| 20260506163112 | 61 | 71 | 1.0 | 2.0 | 0.09 | 0.38 | 0.38 | 88 | 1011.0 |
| 20260506161551 | 61 | 288 | 0.0 | 2.0 | 0.14 | 0.38 | 0.38 | 88 | 1011.1 |
| 20260506160056 | 61 | 360 | 0.0 | 4.0 | 0.13 | 0.37 | 0.37 | 87 | 1011.2 |
| 20260506154615 | 61 | 288 | 2.0 | 8.0 | 0.20 | 0.37 | 0.37 | 86 | 1010.9 |
| 20260506153107 | 62 | 64 | 1.0 | 4.0 | 0.13 | 0.29 | 0.29 | 85 | 1010.8 |
| 20260506151558 | 62 | 26 | 1.0 | 4.0 | 0.09 | 0.25 | 0.24 | 85 | 1010.4 |
| 20260506150051 | 62 | 61 | 1.0 | 5.0 | 0.08 | 0.24 | 0.23 | 84 | 1010.6 |
| 20260506144551 | 63 | 53 | 1.0 | 7.0 | 0.01 | 0.19 | 0.16 | 81 | 1010.8 |
| 20260506143104 | 62 | 37 | 3.0 | 6.0 | 0.00 | 0.18 | 0.15 | 80 | 1010.8 |
| 20260506141556 | 63 | 7 | 2.0 | 7.0 | 0.00 | 0.18 | 0.14 | 77 | 1011.0 |
| 20260506140057 | 63 | 304 | 2.0 | 8.0 | 0.00 | 0.18 | 0.14 | 74 | 1011.1 |
| 20260506134553 | 65 | 246 | 4.0 | 12.0 | 0.00 | 0.18 | 0.14 | 71 | 1011.2 |
| 20260506133053 | 69 | 188 | 4.0 | 13.0 | 0.00 | 0.18 | 0.14 | 66 | 1010.9 |
| 20260506131550 | 71 | 200 | 3.0 | 14.0 | 0.00 | 0.18 | 0.14 | 66 | 1010.5 |
| 20260506130052 | 71 | 198 | 5.0 | 16.0 | 0.00 | 0.18 | 0.14 | 67 | 1010.5 |
| 20260506124552 | 71 | 150 | 5.0 | 13.0 | 0.00 | 0.25 | 0.14 | 69 | 1010.7 |
| 20260506123054 | 73 | 207 | 4.0 | 11.0 | 0.00 | 0.25 | 0.14 | 63 | 1010.8 |
| 20260506121550 | 73 | 128 | 5.0 | 17.0 | 0.00 | 0.25 | 0.14 | 63 | 1010.7 |
| 20260506120059 | 71 | 250 | 4.0 | 15.0 | 0.00 | 0.25 | 0.14 | 67 | 1010.6 |
| 20260506114559 | 71 | 222 | 3.0 | 9.0 | 0.00 | 0.75 | 0.14 | 67 | 1011.0 |
| 20260506113054 | 72 | 235 | 3.0 | 12.0 | 0.00 | 0.75 | 0.14 | 67 | 1011.0 |
| 20260506111557 | 70 | 169 | 2.0 | 11.0 | 0.00 | 0.75 | 0.14 | 72 | 1011.1 |
| 20260506104553 | 69 | 233 | 6.0 | 17.0 | 0.00 | 0.76 | 0.14 | 71 | 1011.4 |
| 20260506103053 | 68 | 182 | 5.0 | 12.0 | 0.00 | 0.76 | 0.14 | 72 | 1011.4 |
| 20260506101602 | 68 | 186 | 8.0 | 20.0 | 0.00 | 0.76 | 0.14 | 71 | 1011.4 |
| 20260506100053 | 68 | 150 | 6.0 | 12.0 | 0.00 | 0.76 | 0.14 | 71 | 1011.5 |
| 20260506094621 | 70 | 182 | 5.0 | 12.0 | 0.00 | 0.76 | 0.14 | 70 | 1011.4 |
| 20260506093056 | 67 | 221 | 4.0 | 14.0 | 0.00 | 0.76 | 0.14 | 72 | 1011.4 |
| 20260506091550 | 66 | 200 | 7.0 | 12.0 | 0.00 | 0.76 | 0.14 | 72 | 1011.5 |
| 20260506090052 | 66 | 148 | 4.0 | 14.0 | 0.00 | 0.76 | 0.14 | 74 | 1011.4 |
| 20260506084552 | 64 | 186 | 4.0 | 10.0 | 0.00 | 0.76 | 0.14 | 80 | 1011.4 |
| 20260506083052 | 63 | 204 | 4.0 | 11.0 | 0.00 | 0.76 | 0.14 | 83 | 1011.5 |
| 20260506081550 | 63 | 160 | 3.0 | 6.0 | 0.00 | 0.76 | 0.14 | 83 | 1011.3 |
| 20260506073053 | 60 | 148 | 2.0 | 5.0 | 0.00 | 0.76 | 0.14 | 87 | 1011.2 |
| 20260506071550 | 60 | 113 | 2.0 | 6.0 | 0.00 | 0.76 | 0.14 | 87 | 1011.2 |
| 20260506061553 | 59 | 118 | 3.0 | 9.0 | 0.00 | 0.76 | 0.14 | 86 | 1010.9 |
| 20260506044553 | 59 | 70 | 2.0 | 4.0 | 0.00 | 0.87 | 0.14 | 88 | 1011.1 |